Regional Weather Roundup
Issued by NWS

Home | Current Version | Previous Version | Text Only | Print | Product List | Glossary On
Versions: 1 2 3 4 5 6 7 8 9 10 11 12 13 14 15 16 17 18 19 20 21 22 23 24 25 26 27 28 29 30 31 32 33 34 35 36 37 38 39 40 41 42 43 44 45 46 47 48 49 50
143
ASUS43 KDTX 230901
RWRMI
MICHIGAN HOURLY REGIONAL WEATHER ROUNDUP
NATIONAL WEATHER SERVICE DETROIT/PONTIAC MI
500 AM EDT THU MAR 23 2017

NOTE: "FAIR" INDICATES FEW OR NO CLOUDS BELOW 12,000 FEET WITH NO
SIGNIFICANT WEATHER AND/OR OBSTRUCTION TO VISIBILITY.

MIZ047>049-052>055-059>063-066>070-074>076-081>083-231000-
SOUTHEAST LOWER MICHIGAN

CITY           SKY/WX    TMP DP  RH WIND       PRES   REMARKS
ADRIAN         CLEAR     22  16  78 SE3       30.52F
ALMA           CLOUDY    25  17  73 CALM      30.49F
ANN ARBOR      CLEAR     20  17  88 E3        30.51F
BAD AXE        CLEAR     19  16  87 CALM      30.52F
CARO           CLOUDY    17  14  90 CALM      30.51F
DETROIT CITY   CLEAR     21  14  74 CALM      30.55F
DETROIT        PTCLDY    24  15  68 E3        30.54F
FLINT          CLOUDY    21  16  81 S7        30.50F WCI  12
GROSSE ILE     CLEAR     25  18  73 E3        30.53F
HILLSDALE      CLEAR     21  16  79 SE5       30.47F WCI  15
HOWELL         CLEAR     20  15  81 SE5       30.49F WCI  13

CITY           SKY/WX    TMP DP  RH WIND       PRES   REMARKS
JACKSON        PTCLDY    23  15  71 S7        30.49F WCI  15
LAMBERTVILLE   CLEAR     21  17  83 CALM      30.52F
LANSING        CLOUDY    25  15  66 S9        30.49F WCI  15
LAPEER         FAIR      17  16  95 CALM      30.51F
MASON          CLOUDY    24  19  81 SE3       30.49F
MONROE         CLEAR     21  20  96 CALM      30.52F
MT. CLEMENS    CLEAR     19  17  92 CALM      30.52F
PONTIAC        CLOUDY    21  15  78 SE5       30.50F WCI  15
PORT HOPE        N/A     19  15  84 SE3       30.51F
PORT HURON     CLEAR     14  12  92 CALM      30.55S
TRI CITIES     CLOUDY    24  17  74 S8        30.50F WCI  15
MIDLAND        FAIR      20  14  78 CALM      30.50S
TROY           CLEAR     23  15  70 CALM      30.55F
SAGINAW HB     CLEAR     23  14  68 S3        30.51F
$$
MIZ043>046-050>051-056>058-064>065-071>073-077>080-231000-
SOUTHWEST LOWER MICHIGAN

CITY           SKY/WX    TMP DP  RH WIND       PRES   REMARKS
BATTLE CREEK   CLEAR     25  16  68 SE7       30.47F WCI  17
BENTON HARBOR  CLOUDY    25  15  66 SE6       30.46F WCI  18
BIG RAPIDS     CLOUDY    18  14  86 CALM      30.45F
COLDWATER      CLEAR     24  16  71 SE6       30.48F WCI  17
FREMONT        FAIR      25  13  61 SE3       30.45F
HOLLAND        CLEAR     23  14  68 SE6       30.47F WCI  16
GRAND RAPIDS   CLEAR     24  12  60 SE7       30.47F WCI  16
IONIA          FAIR      27  18  69 S8        30.48S WCI  18
KALAMAZOO      CLEAR     26  14  60 SE6       30.48F WCI  19
LUDINGTON      CLOUDY    22  17  81 SE5       30.45S WCI  16
MARSHALL       CLOUDY    23  16  72 SE5       30.48F WCI  17
MOUNT PLEASANT CLEAR     19  15  83 CALM      30.48S
MUSKEGON       CLEAR     23  15  71 SE6       30.47F WCI  16
SOUTH HAVEN    CLEAR     24  17  74 SE3       30.47S
$$
MIZ016>042-231000-
NORTHERN LOWER MICHIGAN

CITY           SKY/WX    TMP DP  RH WIND       PRES   REMARKS
ALPENA         CLOUDY    16  12  84 CALM      30.50F
BEAVER ISLAND  CLOUDY    19  16  87 CALM      30.45F
BELLAIRE       CLOUDY    18  15  88 CALM      30.47F
CADILLAC       CLEAR     15  10  82 CALM      30.42S
CHARLEVOIX     CLOUDY    20  13  76 E5        30.49F WCI  13
FRANKFORT      PTCLDY    18  12  77 CALM      30.45F
GAYLORD        CLOUDY    22  11  62 CALM      30.43F
GRAYLING       CLOUDY    14  10  85 CALM      30.46S
HARBOR SPRINGS CLOUDY    18  13  83 E6        30.46F WCI   9
HOUGHTON LAKE  PTCLDY    20  12  71 CALM      30.46F
MANISTEE       CLOUDY    16  14  92 E5        30.45F WCI   9
OSCODA         CLOUDY    14  10  82 CALM      30.50F
PELLSTON       CLOUDY    12   7  80 CALM      30.47F
ROGERS CITY    CLEAR     20  14  79 S5        30.50S WCI  13
TRAVERSE CITY  CLOUDY    20  12  71 CALM      30.46F
$$
MIZ007>008-015-231000-
EASTERN UPPER MICHIGAN

CITY           SKY/WX    TMP DP  RH WIND       PRES   REMARKS
KINROSS        CLOUDY    14   9  80 SE3       30.47F
MACKINAC ISLAN CLEAR     20  15  79 SE6       30.46F WCI  12
NEWBERRY       CLOUDY    20  17  88 S3        30.43S
S. S. MARIE    PTCLDY    14   9  80 E5        30.47F WCI   6
MUNISING         N/A     23  15  71 S8        30.42S WCI  14
$$
MIZ004>006-011>014-085-231000-
CENTRAL UPPER MICHIGAN

CITY           SKY/WX    TMP DP  RH WIND       PRES   REMARKS
MANISTIQUE     CLOUDY    27  21  80 S9        30.44R WCI  17
ESCANABA       PTCLDY    21  19  92 CALM      30.44S
MENOMINEE        N/A    N/A N/A N/A MISG        N/A
SAWYER-GWINN   PTCLDY    21  17  82 S8        30.38S WCI  12
$$
MIZ001>003-009>011-084-231000-
WESTERN UPPER MICHIGAN

CITY           SKY/WX    TMP DP  RH WIND       PRES   REMARKS
IRON MOUNTAIN  MOCLDY    23  16  74 S5        30.37F WCI  17
HOUGHTON       PTCLDY    26  14  60 S8        30.32F WCI  18
COPPER HARBOR    N/A     28  17  63 SW9       30.35S WCI  19
IRONWOOD       CLOUDY    31  16  54 S10       30.29F WCI  22
$$

ABBREVIATIONS USED IN REMARKS
   TC - TEMPERATURE IN CELSIUS
  WCI - WIND CHILL INDEX
   HX - HEAT INDEX
  VSB - VISIBILITY





USA.gov is the U.S. government's official web portal to all federal, state and local government web resources and services.